Location: Hilton Head Island
(32.2163°N, 80.7526°W)
Time: 22:57:43
(UTC-05:00)

Vanguard 1 - Pass Details

Date: 17 February 2026
Orbit: 653 x 3818 km, 34.2° (Epoch: 5 March)

Event Time Altitude Azimuth Distance (km) Brightness Sun altitude
Rises 14:18:51 0° 225° (SW) 3,959 14.0 39.7°
Reaches altitude 10° 14:21:08 10° 220° (SW) 3,264 14.0 39.5°
Maximum altitude 14:29:20 54° 145° (SE) 2,195 12.6 38.5°
Drops below altitude 10° 14:44:29 10° 74° (ENE) 5,802 13.7 36.5°
Sets 14:50:06 0° 71° (ENE) 7,251 14.1 35.7°
